Home > Weather > Cham > Past weeks

Flag for Switzerland Past Weather in Cham, Zug, Switzerland — Yesterday and Last 2 Weeks

Now
78 °F

Warm.


Feels Like: 80 °F
Forecast: 58 / 87 °F
Wind: 3 mph from Northwest

Location: Zuerich-Fluntern

Current Time: Jul 29, 2016 at 8:03:25 PM

Latest Report: Jul 29, 2016 at 7:00 PM


Visibility: N/A

Pressure: 29.90 "Hg

Humidity: 50%

Dew Point: 58 °F

Location of ChamLocation

Past Weather in Cham — Graph

°F

Cham Temperature Yesterday

Maximum temperature yesterday: 77 °F (at 2:00 PM)
Minimum temperature yesterday: 60 °F (at 6:00 AM)
Average temperature yesterday: 68 °F

High & Low Weather Summary for the Past Weeks

 TemperatureHumidityPressure
High88 °F (Jul 20, 5:00 PM)100% (Jul 19, 4:00 PM)30.37 "Hg (Jul 19, 4:00 PM)
Low47 °F (Jul 16, 5:00 AM)32% (Jul 20, 7:00 PM)29.88 "Hg (Jul 20, 7:00 PM)
Average68 °F73%30.09 "Hg
* Reported Jul 14 6:00 PM — Jul 29 6:00 PM, Cham, Weather by CustomWeather, © 2016

Note: Actual official high and low records may vary slightly from our data, if they occured in-between our weather recording intervals... More about our weather records

Advertising

Cham Weather History for the Previous 24 Hours

Scroll right to see more
 ConditionsComfort  
Time TempWeatherWind HumidityBarometerVisibility
6:00 PM
Fri, Jul 29
79 °FWarm.5 mph49%29.91 "HgN/A
5:00 PM77 °FWarm.5 mph51%29.93 "HgN/A
4:00 PM78 °FWarm.7 mph46%29.93 "HgN/A
3:00 PM77 °FWarm.8 mph46%29.95 "HgN/A
2:00 PM78 °FPartly sunny.8 mph45%29.95 "HgN/A
1:00 PM74 °FMild.7 mph55%29.98 "HgN/A
12:00 PM71 °FMild.3 mph63%30.00 "HgN/A
11:00 AM71 °FMild.2 mph65%30.01 "HgN/A
10:00 AM69 °FMild.5 mph70%30.03 "HgN/A
9:00 AM67 °FMild.5 mph71%30.03 "HgN/A
8:00 AM66 °FMild.3 mph78%30.04 "HgN/A
7:00 AM65 °FMild.3 mph77%30.03 "HgN/A
6:00 AM65 °FMild.3 mph77%30.03 "HgN/A
5:00 AM65 °FMild.5 mph75%30.03 "HgN/A
4:00 AM66 °FMild.2 mph73%30.03 "HgN/A
3:00 AM67 °FMild.3 mph71%30.03 "HgN/A
2:00 AM66 °FMild.2 mph77%30.04 "HgN/A
1:00 AM67 °FMild.2 mph71%30.03 "HgN/A
12:00 AM67 °FMild.2 mph72%30.04 "HgN/A
11:00 PM
Thu, Jul 28
66 °FMild.2 mph74%30.03 "HgN/A
10:00 PM67 °FMild.2 mph71%30.03 "HgN/A
9:00 PM71 °FMild.5 mph60%30.01 "HgN/A
8:00 PM71 °FScattered clouds.5 mph60%30.00 "HgN/A
Weather by CustomWeather, © 2016

See weather overviewHow to use our weather pages